Overview Statistics Trail Chart Weather Telemetry Raw packets
 

This is the latest recevied weather packets stored in our database for station/object KK7MLS-13. If no packets are shown the sender has not sent any weather packets the latest 10 day(s).

<< 22 23 24 25 26 27 28 >>
Time Temp. Humidity Pressure Rain* Wind** Luminosity Snow
1788529177 11.67° C 96% 1011.6 hPa 0 mm - 1 W/m² -
1788528872 11.67° C 96% 1011.8 hPa 0 mm - 0 W/m² -
1788528567 11.67° C 96% 1011.6 hPa 0 mm - 0 W/m² -
1788528262 11.67° C 96% 1011.6 hPa 0 mm - 0 W/m² -
1788527962 11.67° C 96% 1011.6 hPa 0 mm - 0 W/m² -
1788527657 11.67° C 96% 1011.5 hPa 0 mm - 0 W/m² -
1788527353 11.67° C 96% 1011.4 hPa 0 mm - 0 W/m² -
1788527052 11.67° C 96% 1011.6 hPa 0 mm - 0 W/m² -
1788526747 11.67° C 96% 1011.5 hPa 0 mm - 0 W/m² -
1788526444 11.67° C 96% 1011.4 hPa 0 mm - 0 W/m² -
1788526142 11.67° C 96% 1011.3 hPa 0 mm - 0 W/m² -
1788525839 11.67° C 96% 1011.4 hPa 0 mm - 0 W/m² -
1788525534 11.67° C 96% 1011.5 hPa 0 mm - 0 W/m² -
1788525229 11.67° C 96% 1011.4 hPa 0 mm - 0 W/m² -
1788524925 11.67° C 96% 1011.4 hPa 1.27 mm - 0 W/m² -
1788524624 11.67° C 96% 1011.1 hPa 1.27 mm - 0 W/m² -
1788524319 11.67° C 96% 1011.3 hPa 0 mm - 0 W/m² -
1788524015 11.67° C 96% 1011.4 hPa 0 mm - 0 W/m² -
1788523712 11.67° C 96% 1011.3 hPa 0 mm - 0 W/m² -
1788523407 11.67° C 96% 1011.3 hPa 0 mm - 0 W/m² -
1788523102 11.67° C 95% 1011.1 hPa 0 mm - 0 W/m² -
1788522797 11.67° C 95% 1011.2 hPa 1.78 mm - 0 W/m² -
1788522492 11.67° C 95% 1011.2 hPa 3.05 mm - 0 W/m² -
1788522192 11.67° C 95% 1011 hPa 1.27 mm - 0 W/m² -
1788521887 12.22° C 95% 1011.1 hPa 1.78 mm - 0 W/m² -

* Rain latest hour (hover to see other rain measurements)
** Current wind speed in m/s (hover to see current wind gust speed)